675  
SXUS52 KCHS 231726  
OSOCHS  
 
MARINE OBSERVATIONS  
NATIONAL WEATHER SERVICE CHARLESTON SC  
1200 PM EST SAT JAN 23 2021  
   
..DOWNTOWN CHARLESTON AND HARBOR
 
 
 
CITY SKY/WX TMP DP RH WIND PRES REMARKS  
WATERFRONT PRK N/A 53 37 54 N12 30.05F  
   
..LAKE MOULTRIE
 
 
 
CITY SKY/WX TMP DP RH WIND PRES REMARKS  
PINOPOLIS N/A 48 34 57 N9 30.14S  
   
..LAKE AND SUPPLEMENTAL COASTAL OBSERVATIONS
 
 
 
STATION/POSITION TIME TEMP WIND PRES WAVE SWELL  
AIR SEA DIR/SP/G HT/PER HT/PER/DIR  
(UTC) (F) (DEG/KT/KT) (MB) (FT/S) (FT/S/D)  
CHRLSTN HARBOR 1642 55 53 360/ 10/ 13 1022.7F  
FORT PULASKI 1642 53 52 70/ 15/ 19 1022.8R  
SAPELO ISLAND 1700 61 30/ 9 1022.0  
WINYAH BAY 1645 51 10/ 9 1022.0  
LAKE MURRAY 1720 50 40/ 3/ 8 N/A  
ACE BASIN NERRS 1630 54 360/ 4 1023.0S  
 
   
..C-MAN AND BUOY OBSERVATIONS
 
 
 
STATION/POSITION TIME TEMP WIND PRES WAVE SWELL  
AIR SEA DIR/SP/G HT/PER HT/PER/DIR  
(UTC) (F) (DEG/KT/KT) (MB) (FT/S) (FT/S/D)  
BUOY 41004 1710 54 65 30/ 19/ 25 1021.8  
BUOY 41008 1650 53 55 30/ 12/ 14 1021.4S 2/ 3  
FOLLY BEACH CMAN 1700 52 30/ 11/ 13 1022.7F  
PRITCHARDS ISLAN NOT AVBL  
CAPERS NS BUOY NOT AVBL  
FRIPP NS BUOY 1708 51 54 60/ 16/ 23 1022.1F  
5E ST. MARYS GA 1700 54 59 N/A 2/ 4  
 
 
STATION/POSITION TIME TEMP WIND PRES WAVE SWELL  
AIR SEA DIR/SP/G HT/PER HT/PER/DIR  
(UTC) (F) (DEG/KT/KT) (MB) (FT/S) (FT/S/D)  
FRYING PAN BUOY 1710 62 10/ 16/ 21 1021.0  
BUOY 41025 1710 47 69 340/ 19/ 25 N/A  
CAPE LOOKOUT NC 1700 46 330/ 13/ 17 1021.3F  
BUOY 41002 NOT AVBL  
BUOY 41010 1710 70 77 350/ 10/ 14 1018.3  
ST AUGUSTINE FL 1700 58 60 360/ 15/ 16 1020.9S  
 

 
 
 
CLICK HERE TO GO TO PREVIOUS BULLETINS.

The Nexlab SC Page
The Nexlab GA Page Main Text Page